Weather in Shuchie

Russia / Kurgan Oblast     55°12′31″N   62°44′52″E
temp.,
°C
wind,
m/s
gust,
m/s
humid.,
%
clouds,
%
prec.,
mm/h
press.,
hPa
HPBL,
m
18 may, tue
tue1823:00+18wnw51162100 0.8 1016169
02:00+17n2271100 0.3 101615
05:00+14wnw3688100 0.9 1016114
08:00+19wsw5968100 0.4 1015312
11:00+23nw6853100 0.4 1014952
14:00+27nw683623 0.0 10132910
17:00+25n67396 0.0 10131771
20:00+19nne6116791 0.0 1015797
19 may, wed
wed1923:00+15nne712748 0.0 1018637
02:00+12nne5117999 0.0 1020468
05:00+11nne5118159 0.0 1022392
08:00+14ne68622 0.0 1023846
11:00+17ne674699 0.0 10231375
14:00+19ne56395 0.0 10231590
17:00+20ne453899 0.0 10221725
20:00+17ne23535 0.0 102333
20 may, thu
thu2023:00+13ne2263100 0.0 102415
02:00+11e226225 0.0 102514
05:00+10sse22665 0.0 102610
08:00+16ssw225251 0.0 1026334
11:00+20w113839 0.0 10251436
14:00+23wsw223111 0.0 10241591
17:00+23wsw22295 0.0 10231725
20:00+20sw22423 0.0 102211
21 may, fri
fri2123:00+16sw22440 0.0 102311
02:00+15sw33470 0.0 102324
05:00+13sw33495 0.0 102334
08:00+19wsw34415 0.0 1024254
11:00+24wsw34305 0.0 10231470
14:00+26sw44275 0.0 10222061
17:00+26sw45275 0.0 10222241
20:00+22sw33410 0.0 102233
22 may, sat
sat2223:00+18ssw33430 0.0 102223
02:00+16ssw46440 0.0 102274
05:00+15sw46510 0.0 102374
08:00+21sw47414 0.0 1023310
11:00+26wsw57325 0.0 10221791
14:00+28wsw682965 0.0 10213107
17:00+27wnw773355 0.0 10212364
20:00+22wsw3350100 0.0 102132